Tracking 22458 objects as of 4-Mar-2021
HD Live streaming from Space Station
objects crossing your sky now

SL-16 DEB

Track SL-16 DEB now!
10-day predictions


NORAD ID: 16389
Int'l Code: 1985-097C
Perigee: 847.6 km
Apogee: 1,121.9 km
Inclination: 71.0 °
Period: 104.6 minutes
Semi major axis: 7355 km
RCS: 0.0898 m2 (small)
Launch date: October 22, 1985
Source: Commonwealth of Independent States (former USSR) (CIS)
Launch site: TYURATAM MISSILE AND SPACE COMPLEX (TTMTR)

Note: This is SATELLITE DEBRIS
aabbcc
Your satellite tracking list
Your tracking list is empty




NASA's NSSDC Master Catalog

Two Line Element Set (TLE):
1 16389U 85097C   21063.23977648  .00000051  00000-0  84463-4 0  9999
2 16389  71.0039   6.5221 0186450  53.4653 308.3454 13.76128133775589
Source of the keplerian elements: AFSPC